Change the Weather History Date:

Sunday, July 6, 2014

  Actual Average Record
Temperature  
Mean Temperature 71 °F -  
Max Temperature 82 °F 74 °F 90 °F (2010)
Min Temperature 57 °F 48 °F 37 °F (2000)
Cooling Degree Days 6    
Growing Degree Days 21 (Base 50)    
Moisture  
Dew Point 52 °F    
Average Humidity 57    
Maximum Humidity 87    
Minimum Humidity 34    
Precipitation  
Precipitation 0.00 in - - ()
Sea Level Pressure  
Sea Level Pressure 29.89 in    
Wind  
Wind Speed 5 mph (SW)    
Max Wind Speed 14 mph    
Max Gust Speed 23 mph    
Visibility 10 miles    
Events      
Averages and records for this station are not official NWS values.
T = Trace of Precipitation, MM = Missing Value Source: NWS Daily Summary

Daily Weather History Graph

Daily Weather History Graph

Search for Another Location

Airport or City:

Trip Planner

Search our weather history database for the weather conditions in past years. The results will help you decide how hot, cold, wet, or windy it might be!

Date:

Astronomy

Jul. 06, 2014 Rise Set
Actual Time 5:08 AM EDT 8:32 PM EDT
Civil Twilight 4:32 AM EDT 9:08 PM EDT
Nautical Twilight 3:45 AM EDT 9:55 PM EDT
Astronomical Twilight 2:45 AM EDT 10:55 PM EDT
Moon 2:21 PM EDT (7/6) 12:35 AM EDT (7/6)
Length of Visible Light 16h 36m
Length of Day
15h 23m
Waxing Gibbous, 62% of the Moon is Illuminated
Jul 6
Waxing Gibbous
Jul 12
Full
Jul 18
Last Quarter
Jul 26
New
Aug 3
First Quarter

Hourly Weather History & Observations

Time (EDT) Temp. Heat Index Dew Point Humidity Pressure Visibility Wind Dir Wind Speed Gust Speed Precip Events Conditions
12:52 AM 63.0 °F - 52.0 °F 67% 29.95 in 10.0 mi SSW 4.6 mph - N/A   Clear
1:52 AM 61.0 °F - 52.0 °F 72% 29.95 in 10.0 mi SSW 4.6 mph - N/A   Clear
2:52 AM 61.0 °F - 50.0 °F 67% 29.94 in 10.0 mi Calm Calm - N/A   Scattered Clouds
3:52 AM 62.1 °F - 50.0 °F 65% 29.94 in 10.0 mi SW 5.8 mph - N/A   Clear
4:52 AM 61.0 °F - 48.9 °F 64% 29.95 in 10.0 mi SW 5.8 mph - N/A   Clear
5:52 AM 61.0 °F - 50.0 °F 67% 29.94 in 10.0 mi Calm Calm - N/A   Scattered Clouds
6:52 AM 61.0 °F - 53.1 °F 75% 29.95 in 10.0 mi Calm Calm - N/A   Overcast
7:52 AM 64.9 °F - 51.1 °F 61% 29.95 in 10.0 mi Variable 3.5 mph - N/A   Overcast
8:52 AM 70.0 °F - 51.1 °F 51% 29.95 in 10.0 mi Variable 6.9 mph - N/A   Overcast
9:52 AM 72.0 °F - 53.1 °F 51% 29.93 in 10.0 mi SW 9.2 mph - N/A   Overcast
10:52 AM 75.0 °F - 54.0 °F 48% 29.91 in 10.0 mi SW 11.5 mph 19.6 mph N/A   Clear
11:52 AM 77.0 °F - 54.0 °F 45% 29.90 in 10.0 mi WSW 9.2 mph - N/A   Clear
12:52 PM 79.0 °F - 54.0 °F 42% 29.87 in 10.0 mi West 13.8 mph 21.9 mph N/A   Clear
1:52 PM 80.1 °F 80.0 °F 54.0 °F 40% 29.86 in 10.0 mi WNW 12.7 mph - N/A   Clear
2:52 PM 80.1 °F - 52.0 °F 38% 29.86 in 10.0 mi WSW 10.4 mph 18.4 mph N/A   Clear
4:52 PM 81.0 °F - 50.0 °F 34% 29.83 in 10.0 mi WSW 12.7 mph 23.0 mph N/A   Clear
5:52 PM 80.1 °F 80.0 °F 54.0 °F 40% 29.82 in 10.0 mi WSW 8.1 mph - N/A   Clear
6:52 PM 77.0 °F - 53.1 °F 43% 29.83 in 10.0 mi SW 9.2 mph - N/A   Clear
7:52 PM 73.9 °F - 54.0 °F 50% 29.83 in 10.0 mi Calm Calm - N/A   Mostly Cloudy
8:52 PM 71.1 °F - 52.0 °F 51% 29.84 in 10.0 mi SW 5.8 mph - N/A   Partly Cloudy
9:52 PM 64.9 °F - 55.9 °F 73% 29.86 in 10.0 mi Calm Calm - N/A   Clear
10:52 PM 61.0 °F - 54.0 °F 78% 29.85 in 10.0 mi Calm Calm - N/A   Clear
11:52 PM 57.9 °F - 54.0 °F 87% 29.85 in 10.0 mi Calm Calm - N/A   Clear